Home   Weather   Milan   Past weeks

Flag for Italy Past Weather in Milan, Italy — Yesterday and Last 2 Weeks

61 °F

Scattered clouds.

Feels Like: 61 °F
Forecast: 51 / 61 °F
Wind: 2 mph from North

Location: Milan / Linate

Current Time: Oct 27, 2016 at 11:17:21 AM

Latest Report: Oct 27, 2016 at 10:20 AM

Visibility: N/A

Pressure: 30.36 "Hg

Humidity: 77%

Dew Point: 54 °F

Location of MilanLocation

Past Weather in Milan — Graph


Milan Temperature Yesterday

Maximum temperature yesterday: 61 °F (at 4:20 PM)
Minimum temperature yesterday: 55 °F (at 12:20 AM)
Average temperature yesterday: 58 °F

High & Low Weather Summary for the Past Weeks

High68 °F (Oct 16, 4:20 PM)100% (Oct 14, 4:20 AM)30.33 "Hg (Oct 14, 4:20 AM)
Low45 °F (Oct 21, 7:20 AM)37% (Oct 12, 4:20 PM)29.80 "Hg (Oct 14, 4:20 PM)
Average55 °F90%30.07 "Hg
* Reported Oct 12 9:20 AM — Oct 27 9:50 AM, Milan, Weather by CustomWeather, © 2016

Note: Actual official high and low records may vary slightly from our data, if they occured in-between our weather recording intervals... More about our weather records


Milan Weather History for the Previous 24 Hours

Scroll right to see more
Time TempWeatherWind HumidityBarometerVisibility
9:50 AM
Thu, Oct 27
61 °FScattered clouds.3 mph83%30.33 "HgN/A
9:20 AM57 °FScattered clouds.No wind100%30.33 "HgN/A
8:50 AM55 °FScattered clouds.1 mph100%30.33 "HgN/A
8:20 AM55 °FFog.3 mph100%30.30 "HgN/A
7:50 AM55 °FPassing clouds.2 mph100%30.30 "HgN/A
7:20 AM57 °FPassing clouds.1 mph100%30.30 "HgN/A
6:50 AM57 °FPassing clouds.2 mph100%30.27 "HgN/A
6:20 AM57 °FPartly cloudy.1 mph100%30.27 "HgN/A
5:50 AM57 °FPassing clouds.1 mph100%30.27 "HgN/A
5:20 AM57 °FPassing clouds.1 mph94%30.27 "HgN/A
4:50 AM57 °FPassing clouds.2 mph100%30.27 "HgN/A
4:20 AM57 °FPassing clouds.No wind100%30.27 "Hg4 mi
3:50 AM57 °FPassing clouds.1 mph100%30.24 "Hg4 mi
3:20 AM59 °FPartly cloudy.No wind94%30.24 "HgN/A
2:50 AM59 °FPartly cloudy.2 mph94%30.24 "HgN/A
2:20 AM59 °FPartly cloudy.2 mph94%30.24 "HgN/A
1:50 AM59 °FPartly cloudy.2 mph94%30.24 "Hg4 mi
1:20 AM59 °FLight rain. Partly cloudy.3 mph100%30.24 "Hg4 mi
12:50 AM59 °FPartly cloudy.3 mph100%30.24 "Hg4 mi
12:20 AM59 °FLight rain. Partly cloudy.5 mph100%30.21 "Hg4 mi
11:50 PM
Wed, Oct 26
59 °FLight rain. Partly cloudy.2 mph94%30.21 "HgN/A
11:20 PM59 °FPartly cloudy.No wind94%30.21 "HgN/A
10:50 PM61 °FPartly cloudy.2 mph88%30.21 "Hg4 mi
10:20 PM59 °FPartly cloudy.3 mph94%30.18 "Hg4 mi
9:50 PM61 °FPartly cloudy.1 mph94%30.18 "Hg4 mi
9:20 PM61 °FPartly cloudy.2 mph94%30.18 "Hg4 mi
8:50 PM61 °FPartly cloudy.3 mph94%30.18 "Hg4 mi
8:20 PM61 °FLight rain. Passing clouds.7 mph94%30.18 "Hg4 mi
7:50 PM61 °FLight rain. Fog.7 mph94%30.18 "Hg3 mi
7:20 PM61 °FLight rain. Fog.6 mph94%30.18 "Hg3 mi
6:50 PM61 °FFog.7 mph94%30.18 "Hg3 mi
6:20 PM61 °FFog.3 mph94%30.18 "Hg3 mi
5:50 PM61 °FFog.3 mph88%30.18 "Hg3 mi
5:20 PM61 °FFog.1 mph88%30.18 "Hg3 mi
4:50 PM61 °FFog.3 mph88%30.18 "Hg3 mi
4:20 PM61 °FFog.5 mph88%30.18 "Hg3 mi
3:50 PM59 °FFog.2 mph94%30.18 "Hg3 mi
3:20 PM59 °FFog.2 mph94%30.18 "Hg3 mi
2:50 PM59 °FFog.3 mph94%30.18 "Hg3 mi
2:20 PM59 °FFog.6 mph94%30.18 "Hg3 mi
1:50 PM59 °FFog.2 mph94%30.21 "Hg3 mi
1:20 PM59 °FFog.2 mph94%30.21 "Hg3 mi
12:50 PM59 °FFog.1 mph94%30.21 "Hg2 mi
12:20 PM59 °FFog.2 mph94%30.21 "Hg2 mi
11:50 AM57 °FFog.2 mph100%30.21 "Hg1 mi
11:20 AM57 °FFog.3 mph100%30.21 "Hg2 mi
Weather by CustomWeather, © 2016

See weather overviewHow to use our weather pages